Location: Unspecified
(51.6250°N, 0.8230°E)
Time: 06:10:48
(UTC+00:00)

ISS - Pass Details

Date: 31 January 2021
Orbit: 417 x 422 km, 51.6° (Epoch: 02 March)

Event Time Altitude Azimuth Distance (km) Brightness Sun altitude
Rises 18:37:28 0° 283° (WNW) 2,376 1.5 -17.6°
Reaches altitude 10° 18:39:36 10° 279° (W) 1,510 0.2 -17.9°
Maximum altitude 18:42:55 55° 200° (SSW) 515 -3.3 -18.4°
Enters shadow 18:43:44 41° 150° (SSE) 621 -3.2 -18.5°
